Torna al catalogo

OPS 4682 DEB

AttivoPO
NORAD 38439·DEBRIS·🇺🇸 United States

Lanciato Apr 3, 1965 da Vandenberg Space Force Base

Loading…

Prossimi Passaggi (prossime 24 ore)

TLE

AggiornatoSource: Space-Track

Epoca: Sep 13, 2026, 20:05 UTC

1 38439U 65027EU  26256.83708661  .00000682  00000-0  22343-2 0  9999
2 38439  90.3091  38.4135 0037696 158.3821 201.8903 12.99998255676308

Traccia OPS 4682 DEB in tempo reale con AllMySat

Download on the App Store